Weather History for Great Bend, KS

Change the Weather History Date:

Friday, January 11, 2013

  Actual Average Record
Temperature  
Mean Temperature 44 °F -  
Max Temperature 57 °F 37 °F - (-1)
Min Temperature 30 °F 16 °F - (-1)
Degree Days  
Heating Degree Days 22    
Moisture  
Dew Point 34 °F    
Average Humidity 68    
Maximum Humidity 87    
Minimum Humidity 31    
Precipitation  
Precipitation 0.00 in - - ()
Sea Level Pressure  
Sea Level Pressure 29.57 in    
Wind  
Wind Speed 20 mph (SSW)    
Max Wind Speed 39 mph    
Max Gust Speed 51 mph    
Visibility 10 miles    
Events      
Averages and records for this station are not official NWS values.
T = Trace of Precipitation, MM = Missing Value Source: NWS Daily Summary

Daily Weather History Graph

Daily Weather History Graph

Search for Another Location

Airport:

Trip Planner

Search our weather history database for the weather conditions in past years. The results will help you decide how hot, cold, wet, or windy it might be!

Date:

Astronomy

Jan. 11, 2013 Rise Set
Actual Time 7:52 AM CST 5:35 PM CST
Civil Twilight 7:22 AM CST 6:04 PM CST
Nautical Twilight 6:50 AM CST 6:37 PM CST
Astronomical Twilight 6:18 AM CST 7:08 PM CST
Moon 7:27 AM CST (1/11) 5:54 PM CST (1/11)
Length of Visible Light 10h 41m
Length of Day
9h 43m
Waning Crescent, 0% of the Moon is Illuminated
Jan 11
Waning Crescent
Jan 11
New
Jan 18
First Quarter
Jan 26
Full
Feb 3
Last Quarter

Hourly Weather History & Observations

Time (CST) Temp. Windchill Dew Point Humidity Pressure Visibility Wind Dir Wind Speed Gust Speed Precip Events Conditions
12:15 AM 42.8 °F 35.1 °F 39.2 °F 87% 29.67 in 8.0 mi South 16.1 mph - N/A   Overcast
12:35 AM 42.8 °F 35.1 °F 39.2 °F 87% 29.66 in 9.0 mi South 16.1 mph - N/A   Overcast
12:55 AM 42.8 °F 34.3 °F 39.2 °F 87% 29.65 in 9.0 mi South 19.6 mph 26.5 mph N/A   Overcast
1:15 AM 42.8 °F 34.8 °F 39.2 °F 87% 29.64 in 7.0 mi South 17.3 mph - N/A   Overcast
1:35 AM 42.8 °F 34.5 °F 39.2 °F 87% 29.62 in 8.0 mi South 18.4 mph - N/A   Overcast
1:55 AM 42.8 °F 34.3 °F 39.2 °F 87% 29.60 in 10.0 mi South 19.6 mph 24.2 mph N/A   Overcast
2:15 AM 42.8 °F 34.0 °F 39.2 °F 87% 29.60 in 9.0 mi South 20.7 mph - N/A   Overcast
2:35 AM 42.8 °F 34.0 °F 39.2 °F 87% 29.60 in 9.0 mi South 20.7 mph 24.2 mph N/A   Overcast
2:55 AM 42.8 °F 34.3 °F 39.2 °F 87% 29.60 in 9.0 mi South 19.6 mph - N/A   Mostly Cloudy
3:15 AM 42.8 °F 35.4 °F 39.2 °F 87% 29.58 in 9.0 mi South 15.0 mph - N/A   Scattered Clouds
3:35 AM 42.8 °F 34.8 °F 39.2 °F 87% 29.57 in 10.0 mi South 17.3 mph - N/A   Scattered Clouds
3:55 AM 42.8 °F 34.8 °F 39.2 °F 87% 29.55 in 10.0 mi South 17.3 mph - N/A   Partly Cloudy
4:15 AM 42.8 °F 35.1 °F 39.2 °F 87% 29.54 in 10.0 mi South 16.1 mph - N/A   Clear
4:35 AM 44.6 °F 37.8 °F 39.2 °F 81% 29.53 in 10.0 mi South 15.0 mph - N/A   Clear
4:55 AM 44.6 °F 36.6 °F 39.2 °F 81% 29.52 in 10.0 mi South 19.6 mph - N/A   Clear
5:15 AM 44.6 °F 37.8 °F 39.2 °F 81% 29.51 in 10.0 mi SSW 15.0 mph - N/A   Clear
5:35 AM 44.6 °F 37.8 °F 39.2 °F 81% 29.51 in 10.0 mi South 15.0 mph - N/A   Clear
6:15 AM 42.8 °F 34.5 °F 37.4 °F 81% 29.50 in 10.0 mi South 18.4 mph 21.9 mph N/A   Clear
6:35 AM 42.8 °F 34.0 °F 37.4 °F 81% 29.50 in 10.0 mi SSW 20.7 mph 26.5 mph N/A   Clear
6:55 AM 42.8 °F 34.0 °F 37.4 °F 81% 29.50 in 10.0 mi SSW 20.7 mph 25.3 mph N/A   Clear
7:15 AM 44.6 °F 36.6 °F 37.4 °F 76% 29.51 in 10.0 mi SSW 19.6 mph - N/A   Clear
7:35 AM 44.6 °F 36.6 °F 37.4 °F 76% 29.51 in 10.0 mi SSW 19.6 mph 24.2 mph N/A   Clear
7:55 AM 44.6 °F 36.6 °F 37.4 °F 76% 29.52 in 10.0 mi SSW 19.6 mph 23.0 mph N/A   Clear
8:15 AM 44.6 °F 36.1 °F 37.4 °F 76% 29.52 in 10.0 mi South 21.9 mph - N/A   Clear
8:35 AM 44.6 °F 35.9 °F 37.4 °F 76% 29.53 in 10.0 mi South 23.0 mph 28.8 mph N/A   Clear
8:55 AM 44.6 °F 37.8 °F 37.4 °F 76% 29.52 in 10.0 mi SSW 15.0 mph - N/A   Clear
9:35 AM 44.6 °F 36.6 °F 37.4 °F 76% 29.52 in 10.0 mi South 19.6 mph - N/A   Clear
9:55 AM 44.6 °F 36.1 °F 37.4 °F 76% 29.52 in 10.0 mi South 21.9 mph - N/A   Clear
10:15 AM 44.6 °F 36.4 °F 37.4 °F 76% 29.51 in 10.0 mi South 20.7 mph 27.6 mph N/A   Clear
10:35 AM 46.4 °F 38.5 °F 37.4 °F 71% 29.51 in 10.0 mi South 21.9 mph 28.8 mph N/A   Clear
10:55 AM 46.4 °F 38.3 °F 37.4 °F 71% 29.51 in 10.0 mi South 23.0 mph 28.8 mph N/A   Clear
11:15 AM 46.4 °F 38.5 °F 37.4 °F 71% 29.49 in 10.0 mi South 21.9 mph 28.8 mph N/A   Clear
11:35 AM 46.4 °F 38.1 °F 37.4 °F 71% 29.48 in 10.0 mi South 24.2 mph 27.6 mph N/A   Clear
11:55 AM 46.4 °F 38.5 °F 37.4 °F 71% 29.48 in 10.0 mi SSW 21.9 mph 29.9 mph N/A   Clear
12:15 PM 46.4 °F 38.7 °F 39.2 °F 76% 29.46 in 10.0 mi South 20.7 mph 24.2 mph N/A   Clear
12:35 PM 48.2 °F - 39.2 °F 71% 29.45 in 10.0 mi South 21.9 mph 28.8 mph N/A   Clear
12:55 PM 48.2 °F - 39.2 °F 71% 29.44 in 10.0 mi South 23.0 mph 26.5 mph N/A   Clear
1:15 PM 48.2 °F - 39.2 °F 71% 29.43 in 10.0 mi South 21.9 mph - N/A   Clear
1:55 PM 50.0 °F - 39.2 °F 66% 29.41 in 10.0 mi South 24.2 mph 27.6 mph N/A   Clear
2:15 PM 51.8 °F - 39.2 °F 62% 29.42 in 10.0 mi South 21.9 mph 28.8 mph N/A   Clear
2:35 PM 51.8 °F - 41.0 °F 67% 29.42 in 10.0 mi South 18.4 mph 26.5 mph N/A   Clear
2:55 PM 51.8 °F - 41.0 °F 67% 29.42 in 10.0 mi South 20.7 mph - N/A   Clear
3:15 PM 53.6 °F - 41.0 °F 62% 29.43 in 10.0 mi South 19.6 mph - N/A   Clear
3:35 PM 53.6 °F - 41.0 °F 62% 29.43 in 10.0 mi South 21.9 mph 25.3 mph N/A   Clear
3:55 PM 53.6 °F - 41.0 °F 62% 29.43 in 10.0 mi SSW 19.6 mph - N/A   Clear
4:15 PM 55.4 °F - 39.2 °F 54% 29.44 in 10.0 mi SSW 20.7 mph - N/A   Clear
4:35 PM 57.2 °F - 37.4 °F 48% 29.46 in 10.0 mi SW 20.7 mph 32.2 mph N/A   Clear
4:55 PM 57.2 °F - 32.0 °F 38% 29.46 in 10.0 mi SW 26.5 mph 35.7 mph N/A   Clear
5:15 PM 57.2 °F - 30.2 °F 36% 29.47 in 10.0 mi SW 39.1 mph 50.6 mph N/A   Clear
5:35 PM 55.4 °F - 30.2 °F 38% 29.50 in 10.0 mi WSW 34.5 mph 42.6 mph N/A   Clear
5:55 PM 55.4 °F - 24.8 °F 31% 29.52 in 10.0 mi WSW 31.1 mph 47.2 mph N/A   Clear
6:15 PM 53.6 °F - 24.8 °F 33% 29.53 in 10.0 mi WSW 29.9 mph 36.8 mph N/A   Clear
6:35 PM 51.8 °F - 23.0 °F 33% 29.56 in 10.0 mi West 28.8 mph 42.6 mph N/A   Scattered Clouds
6:55 PM 48.2 °F - 19.4 °F 32% 29.58 in 7.0 mi West 24.2 mph 29.9 mph N/A   Mostly Cloudy
7:15 PM 46.4 °F 38.7 °F 17.6 °F 32% 29.60 in 8.0 mi WSW 20.7 mph - N/A   Partly Cloudy
7:35 PM 44.6 °F 36.6 °F 17.6 °F 34% 29.62 in 10.0 mi WSW 19.6 mph 26.5 mph N/A   Clear
7:55 PM 44.6 °F 35.7 °F 17.6 °F 34% 29.65 in 10.0 mi West 24.2 mph 32.2 mph N/A   Clear
8:15 PM 42.8 °F 32.7 °F 21.2 °F 42% 29.69 in 10.0 mi WNW 27.6 mph 40.3 mph N/A   Clear
8:35 PM 39.2 °F 28.5 °F 28.4 °F 65% 29.71 in 10.0 mi WNW 24.2 mph 35.7 mph N/A   Clear
8:55 PM 35.6 °F 23.2 °F 26.6 °F 70% 29.73 in 10.0 mi NW 26.5 mph 33.4 mph N/A   Partly Cloudy
9:15 PM 35.6 °F 25.2 °F 26.6 °F 70% 29.75 in 10.0 mi NW 18.4 mph 25.3 mph N/A   Clear
9:35 PM 33.8 °F 23.5 °F 26.6 °F 75% 29.76 in 10.0 mi NW 16.1 mph 25.3 mph N/A   Clear
9:55 PM 33.8 °F 24.3 °F 24.8 °F 70% 29.77 in 10.0 mi NNW 13.8 mph 19.6 mph N/A   Clear
10:15 PM 33.8 °F 24.3 °F 24.8 °F 70% 29.79 in 10.0 mi NNW 13.8 mph 19.6 mph N/A   Clear
10:35 PM 33.8 °F 23.9 °F 24.8 °F 70% 29.81 in 10.0 mi NNW 15.0 mph - N/A   Clear
10:55 PM 32.0 °F 21.2 °F 23.0 °F 69% 29.83 in 10.0 mi NNW 16.1 mph 23.0 mph N/A   Scattered Clouds
11:15 PM 32.0 °F 23.6 °F 24.8 °F 75% 29.85 in 10.0 mi NNW 10.4 mph - N/A   Overcast
11:35 PM 30.2 °F 18.9 °F 21.2 °F 69% 29.86 in 10.0 mi NW 16.1 mph 25.3 mph N/A   Overcast
11:55 PM 30.2 °F 18.1 °F 19.4 °F 64% 29.87 in 10.0 mi North 18.4 mph - N/A   Overcast